EW0294 Weather Reports


Display with metric or nautical units.
time (UTC)temp
F
wind
direction
speed
MPH
gust
MPH
rain 1hr
in
rain 24hr
in
rain mn
in
humidity
%
barometer
mb
20260505183021 80 231 6.0 13.0 0.00 0.00 0.00 36 1001.2
20260505181514 77 308 5.0 16.0 0.00 0.00 0.00 41 1001.3
20260505180011 76 127 3.0 12.0 0.00 0.00 0.00 41 1001.7
20260505174509 77 83 4.0 9.0 0.00 0.00 0.00 41 1002.0
20260505173006 76 355 2.0 11.0 0.00 0.00 0.00 42 1002.1
20260505171505 77 141 4.0 9.0 0.00 0.00 0.00 41 1002.5
20260505170003 77 350 6.0 14.0 0.00 0.00 0.00 40 1002.9
20260505164604 76 205 3.0 11.0 0.00 0.00 0.00 41 1003.1
20260505163057 75 244 4.0 10.0 0.00 0.00 0.00 41 1003.4
20260505161557 74 64 3.0 12.0 0.00 0.00 0.00 44 1003.8
20260505153059 71 211 3.0 13.0 0.00 0.03 0.00 45 1004.6
20260505151543 70 238 4.0 10.0 0.00 0.03 0.00 45 1004.9
20260505124523 53 182 1.0 3.0 0.00 0.03 0.00 78 1005.9
20260505123012 48 190 0.0 2.0 0.00 0.03 0.00 88 1006.1
20260505121506 47 190 0.0 1.0 0.00 0.03 0.00 93 1006.4
20260505120002 45 190 0.0 2.0 0.00 0.03 0.00 94 1006.5
20260505114558 43 190 0.0 0.0 0.00 0.03 0.00 95 1006.5
20260505113114 42 190 0.0 0.0 0.00 0.03 0.00 95 1006.4
20260505111556 40 190 0.0 0.0 0.00 0.03 0.00 94 1006.5
20260505101554 36 190 0.0 0.0 0.00 0.03 0.00 91 1006.3
20260505100054 36 190 0.0 0.0 0.00 0.03 0.00 91 1006.3
20260505094552 36 190 0.0 0.0 0.00 0.03 0.00 91 1006.4
20260505093059 35 190 0.0 0.0 0.00 0.03 0.00 90 1006.4
20260505091552 35 190 0.0 0.0 0.00 0.03 0.00 90 1006.4
20260505090050 35 190 0.0 0.0 0.00 0.03 0.00 90 1006.4
20260505084553 35 190 0.0 0.0 0.00 0.03 0.00 89 1006.5
20260505083053 36 190 0.0 0.0 0.00 0.03 0.00 89 1006.6
20260505081551 36 190 0.0 0.0 0.00 0.03 0.00 89 1006.6
20260505080047 36 190 0.0 0.0 0.00 0.03 0.00 89 1006.7
20260505074545 37 190 0.0 0.0 0.00 0.03 0.00 88 1006.7
20260505073044 37 190 0.0 0.0 0.00 0.03 0.00 89 1006.7
20260505071542 37 190 0.0 0.0 0.00 0.03 0.00 89 1006.5
20260505070045 38 190 0.0 0.0 0.00 0.03 0.00 88 1006.6
20260505064539 38 190 0.0 0.0 0.00 0.03 0.00 88 1006.6
20260505063039 38 190 0.0 0.0 0.00 0.03 0.00 88 1006.7
20260505061536 39 190 0.0 0.0 0.00 0.03 0.00 87 1006.5
20260505060038 39 190 0.0 2.0 0.00 0.03 0.00 87 1006.5
20260505054533 39 190 0.0 1.0 0.00 0.03 0.00 86 1006.8
20260505053049 40 190 0.0 0.0 0.00 0.03 0.00 86 1006.7
20260505051530 40 190 0.0 0.0 0.00 0.03 0.00 86 1006.4
20260505041520 42 190 0.0 0.0 0.00 0.03 0.00 83 1006.2
20260505040017 43 190 0.0 0.0 0.00 0.03 0.00 83 1006.1
20260505034523 44 190 0.0 2.0 0.00 0.03 0.03 84 1006.0
20260505033017 44 190 0.0 0.0 0.00 0.03 0.03 82 1006.1
20260505031516 45 190 0.0 0.0 0.00 0.03 0.03 81 1005.9
20260505030015 46 190 0.0 0.0 0.00 0.03 0.03 81 1006.0
20260505024515 46 190 0.0 0.0 0.00 0.03 0.03 81 1006.1
20260505023015 47 190 0.0 2.0 0.00 0.03 0.03 80 1006.3
20260505021515 47 190 0.0 0.0 0.00 0.03 0.03 79 1006.4
20260505020014 48 190 0.0 0.0 0.00 0.03 0.03 77 1006.4
20260505014513 49 190 0.0 1.0 0.00 0.03 0.03 76 1006.1
20260505013014 50 190 0.0 0.0 0.00 0.03 0.03 75 1005.9
20260505011527 51 190 0.0 0.0 0.00 0.03 0.03 73 1005.8
20260505010016 52 190 0.0 0.0 0.00 0.03 0.03 72 1005.7
20260505004511 53 190 0.0 0.0 0.00 0.03 0.03 70 1005.6
20260505003011 54 190 0.0 0.0 0.00 0.03 0.03 68 1005.2
20260505001511 55 190 0.0 0.0 0.00 0.03 0.03 66 1004.9
20260505000013 57 190 0.0 0.0 0.00 0.03 0.03 64 1004.7
20260504234509 59 190 0.0 0.0 0.00 0.03 0.03 61 1004.6
20260504233009 60 190 0.0 0.0 0.00 0.03 0.03 56 1004.5
20260504231509 61 190 0.0 0.0 0.00 0.03 0.03 54 1004.4
20260504230007 62 190 0.0 2.0 0.00 0.03 0.03 52 1004.2
20260504224511 62 190 0.0 2.0 0.00 0.03 0.03 51 1004.0
20260504223006 62 106 0.0 5.0 0.00 0.03 0.03 50 1004.0
20260504221508 62 86 0.0 3.0 0.00 0.03 0.03 49 1004.1
20260504220005 62 40 0.0 1.0 0.00 0.03 0.03 51 1004.1
20260504214507 62 348 0.0 3.0 0.00 0.03 0.03 50 1004.1
20260504213003 61 5 1.0 3.0 0.00 0.03 0.03 50 1004.1
20260504211502 62 100 0.0 5.0 0.00 0.03 0.03 52 1004.1
20260504210001 61 9 0.0 4.0 0.00 0.03 0.03 54 1004.2
20260504204501 61 319 2.0 6.0 0.00 0.03 0.03 52 1004.1
20260504203105 61 344 2.0 5.0 0.00 0.03 0.03 53 1004.1
20260504201559 60 338 1.0 6.0 0.00 0.03 0.03 54 1004.0
20260504200103 62 316 1.0 6.0 0.00 0.03 0.03 51 1004.0
20260504194605 62 292 1.0 8.0 0.00 0.03 0.03 53 1004.0
20260504193100 61 323 3.0 10.0 0.00 0.03 0.03 52 1003.8
20260504191612 61 321 2.0 10.0 0.00 0.03 0.03 53 1003.9
20260504190056 61 318 3.0 7.0 0.00 0.03 0.03 53 1003.9
20260504184554 61 198 3.0 6.0 0.00 0.03 0.03 53 1003.8